EW5526 Weather Reports


Display with metric or nautical units.
time (UTC)temp
F
wind
direction
speed
MPH
gust
MPH
rain 1hr
in
rain 24hr
in
rain mn
in
humidity
%
barometer
mb
20260904050021 73 355 6.0 9.0 0.00 0.00 0.00 84 1018.2
20260904043020 73 340 1.0 5.0 0.00 0.00 0.00 85 1018.0
20260904040020 73 9 12.0 12.0 0.00 0.00 0.00 85 1017.9
20260904033020 73 331 2.0 6.0 0.00 0.00 0.00 85 1018.2
20260904030020 73 343 3.0 6.0 0.00 0.00 0.00 84 1018.3
20260904020019 74 11 0.0 0.0 0.00 0.00 0.00 82 1018.4
20260904013018 74 300 1.0 2.0 0.00 0.00 0.00 83 1018.5
20260904010018 74 295 7.0 9.0 0.00 0.00 0.00 82 1018.7
20260904003018 74 96 1.0 3.0 0.00 0.00 0.00 81 1018.8
20260903230047 74 334 6.0 12.0 0.00 0.00 0.00 80 1019.0
20260903220048 75 34 6.0 6.0 0.00 0.00 0.00 83 1019.2
20260903210046 75 308 8.0 12.0 0.00 0.00 0.00 82 1019.0
20260903203046 75 314 9.0 12.0 0.00 0.00 0.00 81 1018.8
20260903200046 76 349 10.0 14.0 0.00 0.00 0.00 82 1018.7
20260903190045 76 290 13.0 15.0 0.00 0.00 0.00 81 1018.2
20260903183045 76 290 10.0 12.0 0.00 0.00 0.00 81 1017.9
20260903180044 77 300 7.0 13.0 0.00 0.00 0.00 80 1017.6
20260903170044 78 281 9.0 13.0 0.00 0.00 0.00 75 1017.4
20260903163044 80 298 10.0 14.0 0.00 0.00 0.00 73 1017.3
20260903160043 81 18 14.0 17.0 0.00 0.00 0.00 71 1017.3
20260903153042 82 333 9.0 19.0 0.00 0.00 0.00 70 1017.4
20260903150043 83 302 19.0 19.0 0.00 0.00 0.00 68 1017.2
20260903143042 84 305 10.0 16.0 0.00 0.00 0.00 65 1017.3
20260903133041 86 341 9.0 16.0 0.00 0.00 0.00 59 1017.7
20260903123041 87 308 9.0 18.0 0.00 0.00 0.00 52 1018.1
20260903120041 87 306 11.0 12.0 0.00 0.00 0.00 52 1018.0
20260903113040 88 36 7.0 9.0 0.00 0.00 0.00 47 1018.1
20260903110040 89 307 9.0 11.0 0.00 0.00 0.00 47 1018.5
20260903103039 88 13 3.0 7.0 0.00 0.00 0.00 44 1018.6
20260903100039 87 300 11.0 14.0 0.00 0.00 0.00 47 1018.9
20260903093039 87 276 4.0 8.0 0.00 0.00 0.00 50 1019.2
20260903090038 86 316 3.0 3.0 0.00 0.00 0.00 47 1019.1
20260903083038 85 301 8.0 8.0 0.00 0.00 0.00 43 1019.1
20260903080038 85 11 4.0 9.0 0.00 0.00 0.00 40 1018.9
20260903073037 85 309 3.0 9.0 0.00 0.00 0.00 41 1018.8
20260903070037 84 360 2.0 3.0 0.00 0.00 0.00 41 1018.6
20260903063036 83 286 1.0 4.0 0.00 0.00 0.00 43 1018.5
20260903060037 81 5 3.0 5.0 0.00 0.00 0.00 44 1018.5
20260903053036 79 316 3.0 4.0 0.00 0.00 0.00 47 1018.3